Hourly Weather Kivshovata

Today, 25 October, Sunday

Time Temperature Precipitation Wind Pressure Humidity
00:00 +11°C° 0 mm 3 mps 741 mmHg 87%
01:00 +11°C° 0 mm 3 mps 741 mmHg 91%
02:00 +10°C° 0 mm 2 mps 742 mmHg 94%
03:00 +10°C° 0 mm 2 mps 742 mmHg 94%
04:00 +10°C° 0 mm 2 mps 742 mmHg 95%
05:00 +9°C° 0 mm 2 mps 742 mmHg 95%
06:00 +9°C° 0 mm 2 mps 743 mmHg 94%
07:00 +10°C° 0 mm 2 mps 743 mmHg 93%
08:00 +10°C° 0 mm 2 mps 743 mmHg 92%
09:00 +12°C° 0 mm 2 mps 744 mmHg 84%
10:00 +13°C° 0 mm 1 mps 744 mmHg 76%
11:00 +14°C° 0 mm 1 mps 744 mmHg 68%
12:00 +15°C° 0 mm 2 mps 744 mmHg 64%
13:00 +16°C° 0 mm 2 mps 744 mmHg 59%
14:00 +17°C° 0 mm 2 mps 744 mmHg 54%
15:00 +16°C° 0 mm 2 mps 744 mmHg 58%
16:00 +14°C° 0 mm 2 mps 743 mmHg 63%
17:00 +13°C° 0 mm 2 mps 743 mmHg 67%
18:00 +13°C° 0 mm 2 mps 744 mmHg 69%
19:00 +12°C° 0 mm 2 mps 744 mmHg 71%
20:00 +12°C° 0 mm 2 mps 744 mmHg 72%
21:00 +12°C° 0 mm 2 mps 744 mmHg 73%
22:00 +12°C° 0 mm 2 mps 744 mmHg 73%
23:00 +10°C° 0 mm 2 mps 744 mmHg 74%

Tomorrow, 26 October, Monday

Time Temperature Precipitation Wind Pressure Humidity
00:00 +10°C° 0 mm 3 mps 744 mmHg 75%
01:00 +10°C° 0 mm 3 mps 744 mmHg 76%
02:00 +9°C° 0 mm 3 mps 744 mmHg 77%
03:00 +9°C° 0 mm 3 mps 744 mmHg 78%
04:00 +9°C° 0 mm 3 mps 744 mmHg 79%
05:00 +9°C° 0 mm 3 mps 744 mmHg 79%
06:00 +9°C° 0 mm 3 mps 744 mmHg 78%
07:00 +10°C° 0 mm 4 mps 744 mmHg 77%
08:00 +10°C° 0 mm 4 mps 744 mmHg 76%
09:00 +11°C° 0 mm 4 mps 744 mmHg 71%
10:00 +13°C° 0 mm 5 mps 744 mmHg 67%
11:00 +14°C° 0 mm 5 mps 744 mmHg 62%
12:00 +15°C° 0 mm 5 mps 744 mmHg 61%
13:00 +15°C° 0 mm 5 mps 744 mmHg 59%
14:00 +16°C° 0 mm 5 mps 743 mmHg 58%
15:00 +15°C° 0 mm 4 mps 743 mmHg 61%
16:00 +14°C° 0 mm 4 mps 743 mmHg 63%
17:00 +13°C° 0 mm 4 mps 743 mmHg 66%
18:00 +13°C° 0 mm 4 mps 743 mmHg 66%
19:00 +12°C° 0 mm 4 mps 743 mmHg 66%
20:00 +12°C° 0 mm 4 mps 743 mmHg 66%
21:00 +11°C° 0 mm 4 mps 743 mmHg 66%
22:00 +11°C° 0 mm 3 mps 743 mmHg 67%
23:00 +10°C° 0 mm 3 mps 743 mmHg 68%

Day after tomorrow, 27 October, Tuesday

Time Temperature Precipitation Wind Pressure Humidity
00:00 +10°C° 0 mm 3 mps 743 mmHg 69%
01:00 +10°C° 0 mm 3 mps 743 mmHg 70%
02:00 +9°C° 0 mm 3 mps 743 mmHg 71%
03:00 +8°C° 0 mm 4 mps 743 mmHg 71%
04:00 +8°C° 0 mm 4 mps 744 mmHg 71%
05:00 +8°C° 0 mm 4 mps 744 mmHg 71%
06:00 +8°C° 0 mm 4 mps 744 mmHg 69%
07:00 +8°C° 0 mm 4 mps 744 mmHg 68%
08:00 +10°C° 0 mm 4 mps 744 mmHg 67%
09:00 +11°C° 0 mm 4 mps 744 mmHg 63%
10:00 +13°C° 0 mm 4 mps 744 mmHg 60%
11:00 +14°C° 0 mm 4 mps 744 mmHg 56%
12:00 +15°C° 0 mm 4 mps 744 mmHg 54%
13:00 +17°C° 0 mm 4 mps 744 mmHg 53%
14:00 +17°C° 0 mm 5 mps 744 mmHg 51%
15:00 +17°C° 0 mm 4 mps 744 mmHg 56%
16:00 +14°C° 0 mm 4 mps 744 mmHg 60%
17:00 +13°C° 0 mm 3 mps 744 mmHg 64%
18:00 +13°C° 0 mm 3 mps 744 mmHg 66%
19:00 +12°C° 0 mm 3 mps 744 mmHg 68%
20:00 +12°C° 0 mm 4 mps 744 mmHg 70%
21:00 +11°C° 0 mm 4 mps 744 mmHg 71%
22:00 +11°C° 0 mm 4 mps 744 mmHg 73%
23:00 +11°C° 0 mm 4 mps 744 mmHg 74%

28 October, Wednesday

Time Temperature Precipitation Wind Pressure Humidity
00:00 +11°C° 0 mm 3 mps 744 mmHg 76%
01:00 +10°C° 0 mm 3 mps 744 mmHg 77%
02:00 +10°C° 0 mm 3 mps 744 mmHg 78%
03:00 +9°C° 0 mm 3 mps 744 mmHg 78%
04:00 +9°C° 0 mm 3 mps 744 mmHg 78%
05:00 +9°C° 0 mm 3 mps 744 mmHg 78%
06:00 +8°C° 0 mm 4 mps 745 mmHg 74%
07:00 +8°C° 0 mm 4 mps 745 mmHg 71%
08:00 +8°C° 0 mm 4 mps 745 mmHg 67%
09:00 +10°C° 0 mm 4 mps 745 mmHg 63%
10:00 +12°C° 0 mm 4 mps 745 mmHg 59%
11:00 +13°C° 0 mm 4 mps 745 mmHg 54%
12:00 +14°C° 0 mm 4 mps 745 mmHg 53%
13:00 +14°C° 0 mm 4 mps 745 mmHg 53%
14:00 +15°C° 0 mm 4 mps 744 mmHg 52%
15:00 +14°C° 0 mm 4 mps 744 mmHg 56%
16:00 +12°C° 0 mm 4 mps 744 mmHg 61%
17:00 +11°C° 0 mm 3 mps 744 mmHg 66%
18:00 +11°C° 0 mm 3 mps 744 mmHg 67%
19:00 +10°C° 0 mm 3 mps 744 mmHg 68%
20:00 +9°C° 0 mm 3 mps 745 mmHg 69%
21:00 +9°C° 0 mm 3 mps 744 mmHg 71%
22:00 +8°C° 0 mm 3 mps 744 mmHg 73%
23:00 +8°C° 0 mm 2 mps 744 mmHg 75%

29 October, Thursday

Time Temperature Precipitation Wind Pressure Humidity
00:00 +8°C° 0 mm 2 mps 744 mmHg 77%
01:00 +7°C° 0 mm 2 mps 744 mmHg 79%
02:00 +7°C° 0 mm 2 mps 744 mmHg 81%
03:00 +7°C° 0 mm 2 mps 744 mmHg 83%
04:00 +6°C° 0 mm 2 mps 744 mmHg 84%
05:00 +6°C° 0 mm 2 mps 744 mmHg 86%
06:00 +6°C° 0 mm 2 mps 744 mmHg 85%
07:00 +7°C° 0 mm 2 mps 744 mmHg 84%
08:00 +7°C° 0 mm 2 mps 744 mmHg 83%
09:00 +9°C° 0 mm 2 mps 744 mmHg 77%
10:00 +10°C° 0 mm 2 mps 744 mmHg 71%
11:00 +13°C° 0 mm 2 mps 744 mmHg 65%
12:00 +13°C° 0 mm 2 mps 744 mmHg 63%
13:00 +14°C° 0 mm 1 mps 744 mmHg 61%
14:00 +15°C° 0 mm 1 mps 744 mmHg 60%
15:00 +14°C° 0 mm 1 mps 744 mmHg 64%
16:00 +13°C° 0 mm 1 mps 744 mmHg 68%
17:00 +12°C° 0 mm 1 mps 744 mmHg 73%
18:00 +11°C° 0 mm 1 mps 744 mmHg 74%
19:00 +10°C° 0 mm 1 mps 744 mmHg 76%
20:00 +10°C° 0 mm 1 mps 744 mmHg 77%
21:00 +9°C° 0 mm 1 mps 744 mmHg 78%
22:00 +9°C° 0 mm 1 mps 744 mmHg 79%
23:00 +8°C° 0 mm 0 mps 744 mmHg 80%

30 October, Friday

Time Temperature Precipitation Wind Pressure Humidity
00:00 +9°C° 0 mm 1 mps 744 mmHg 82%
01:00 +9°C° 0 mm 1 mps 744 mmHg 84%
02:00 +8°C° 0 mm 1 mps 745 mmHg 85%
03:00 +8°C° 0 mm 1 mps 745 mmHg 86%
04:00 +8°C° 0 mm 1 mps 745 mmHg 87%
05:00 +8°C° 0 mm 1 mps 745 mmHg 88%
06:00 +9°C° 0 mm 1 mps 745 mmHg 87%
07:00 +9°C° 0 mm 1 mps 745 mmHg 85%
08:00 +10°C° 0 mm 1 mps 746 mmHg 83%
09:00 +10°C° 0 mm 2 mps 746 mmHg 79%
10:00 +13°C° 0 mm 2 mps 746 mmHg 74%
11:00 +14°C° 0 mm 2 mps 746 mmHg 69%
12:00 +14°C° 0 mm 3 mps 746 mmHg 67%
13:00 +16°C° 0 mm 3 mps 746 mmHg 64%
14:00 +17°C° 0 mm 3 mps 746 mmHg 62%
15:00 +14°C° 0 mm 3 mps 746 mmHg 66%
16:00 +14°C° 0 mm 2 mps 746 mmHg 70%
17:00 +13°C° 0 mm 2 mps 747 mmHg 74%
18:00 +13°C° 0 mm 2 mps 747 mmHg 76%
19:00 +12°C° 0 mm 2 mps 747 mmHg 77%
20:00 +12°C° 0 mm 2 mps 747 mmHg 78%
21:00 +10°C° 0 mm 2 mps 747 mmHg 80%
22:00 +10°C° 0 mm 2 mps 748 mmHg 82%
23:00 +9°C° 0 mm 2 mps 748 mmHg 83%
Show more